User: anonymous   Login
Location: Unspecified
(0.0000°N, 0.0000°E)
Time: 12:10:43
(UTC+00:00)
Language:

Meteor 2-14 - Orbit

View from above orbital plane
View from above orbital plane
View from above satellite
View from above satellite

Ground track
Ground track

The orbit data is extracted from the following two-line orbital elements,

1 16735U 86039A   18176.24146250  .00000019  00000-0  35497-5 0  9998
2 16735  82.5372  86.4967 0015809 114.7959 355.5201 13.85281140621520
Epoch (UTC): 25 June 2018 05:47:42
Eccentricity: 0.0015809
inclination: 82.5372°
perigee height: 933 km
apogee height: 957 km
right ascension of ascending node: 86.4967°
argument of perigee: 114.7959°
revolutions per day: 13.85281140
mean anomaly at epoch: 355.5201°
orbit number at epoch: 62152

The dashed part of the orbit path shows where the satellite is in the earth's shadow,  

DLR